Wind_Speed
6 2 1 3 3 4 3 5 2 7 7 5 7 6 2 2 2 4 0 12 25 35 34 31 30 30 28 26 25 24 22 21 20 19 20 20 20 19 19 19 18 17 17 16 17 18 20 21 21
0 4 3 2 4 2 5 4 5 3 8 13 8 3 5 4 4 3 8 7 25 37 35 31 30 30 29 26 27 25 22 22 21 20 19 21 20 19 18 19 19 18 17 17 18 19 21 21 22
5 3 3 3 3 4 4 3 6 14 12 5 5 5 3 2 4 4 5 13 23 32 33 30 30 30 29 28 28 26 23 23 22 22 21 22 20 19 19 18 18 18 18 19 20 20 21 22 23
3 5 4 3 4 5 3 7 6 12 7 7 5 1 4 1 3 3 8 17 25 28 30 26 29 29 28 28 26 26 24 23 22 22 22 22 21 19 19 19 18 18 19 18 20 20 21 22 23
5 3 3 2 4 4 5 4 8 7 5 5 6 4 2 3 8 12 17 21 25 26 30 24 26 26 28 27 26 25 23 22 22 22 21 22 21 21 19 19 19 19 18 18 18 19 21 21 23
4 3 3 1 4 4 5 5 5 6 6 7 5 4 2 4 7 13 18 20 22 25 29 25 25 26 26 26 26 25 24 24 21 23 22 21 22 21 19 19 19 19 19 19 17 19 21 21 22
5 3 4 3 3 4 2 8 3 5 5 5 3 4 2 2 5 10 16 18 19 22 26 22 23 25 25 25 26 26 24 23 23 21 20 22 23 21 20 19 18 19 20 20 22 23 21 22 21
4 4 3 2 2 4 2 5 3 3 5 6 2 4 4 2 7 8 13 16 17 20 21 16 14 20 22 23 26 26 25 23 22 22 17 23 25 22 20 18 18 19 20 21 23 23 21 20 19
3 4 2 3 1 6 4 4 3 3 3 4 2 1 3 5 6 10 8 12 14 18 22 12 4 3 14 25 26 27 25 23 22 22 19 22 24 21 20 19 18 19 21 21 21 23 22 19 18
4 3 6 5 3 4 4 2 4 3 5 3 5 4 3 7 6 9 12 11 15 18 17 18 21 16 33 31 28 28 27 24 23 24 24 24 26 22 20 19 18 18 21 21 22 22 20 18 19
3 4 4 5 6 6 3 5 1 3 6 6 7 7 5 6 6 12 19 23 24 23 19 20 40 37 48 43 32 30 28 26 26 25 26 27 27 22 20 19 19 20 23 23 23 21 20 19 21
0 5 4 4 4 1 3 2 6 2 6 10 6 6 4 6 5 10 17 19 20 16 18 8 15 21 44 46 33 32 30 28 28 27 28 30 29 24 21 19 20 25 26 24 23 23 21 22 23
3 3 3 6 8 6 2 4 4 2 5 7 7 9 9 7 10 16 12 22 19 20 13 5 12 8 16 28 27 30 31 30 30 30 30 32 29 25 21 19 23 29 27 24 22 22 22 23 24
1 4 7 6 6 4 2 1 5 0 7 8 10 8 6 6 7 11 19 21 14 24 17 12 23 13 4 14 15 25 30 32 33 33 33 31 28 25 22 22 27 29 22 19 17 25 25 24 23
3 4 6 2 4 2 5 1 2 4 4 8 9 8 6 5 10 12 16 20 20 18 26 20 18 20 3 12 6 9 26 34 35 35 34 32 29 26 24 26 31 25 18 17 20 30 27 25 24
3 4 4 6 4 2 4 7 0 5 4 7 7 8 8 7 8 17 18 22 24 12 26 31 29 27 18 20 14 13 18 29 34 36 33 30 29 26 25 29 28 22 17 16 23 32 30 27 25
6 1 2 7 2 1 2 5 1 4 5 7 7 8 10 13 15 20 22 23 22 17 25 31 36 37 27 21 19 15 14 19 33 35 34 32 30 27 27 30 26 21 19 17 24 33 31 28 25
4 2 4 5 4 1 3 7 3 3 4 4 5 5 7 9 8 19 25 22 21 13 23 31 29 32 29 29 29 22 19 23 31 37 34 32 32 31 29 29 27 23 22 24 27 33 30 29 27
2 3 4 4 4 3 5 5 5 4 4 6 7 9 11 9 12 21 21 19 18 8 19 25 27 28 32 28 27 21 27 26 26 31 30 32 33 33 31 29 28 26 27 28 29 31 30 27 25
4 2 4 5 4 2 3 6 3 5 4 2 8 12 10 9 9 14 19 18 14 7 17 23 25 22 23 26 32 20 24 24 26 24 23 29 33 33 29 29 29 28 28 28 30 32 28 26 27
2 4 3 5 5 1 0 6 2 4 3 5 6 6 10 10 12 11 15 19 12 7 14 19 22 22 24 26 27 19 23 20 18 17 21 18 23 33 31 31 29 28 28 29 30 33 31 26 18
2 5 3 3 3 3 3 4 3 4 7 4 8 9 10 14 12 11 12 16 12 7 9 13 17 18 18 22 25 26 26 21 18 17 21 19 18 24 25 23 27 27 27 29 29 28 27 28 20
6 2 3 3 3 2 2 3 5 5 6 10 11 13 13 13 14 12 9 11 11 3 11 14 14 11 13 13 18 24 25 24 29 27 19 14 17 19 21 24 25 26 27 28 25 24 22 25 22
2 3 6 4 3 2 3 3 4 4 5 8 10 13 13 14 14 13 14 12 15 14 18 20 20 16 11 12 15 19 24 27 26 25 29 27 22 22 13 17 22 25 25 25 22 22 21 23 19
5 5 2 3 3 5 1 2 7 3 2 3 10 12 11 10 12 13 14 17 16 15 19 20 21 18 15 14 11 16 19 24 27 28 28 24 23 22 15 8 11 17 20 21 22 23 24 22 19
2 5 5 5 2 5 4 3 4 3 2 3 6 8 8 9 10 11 12 13 15 19 19 17 14 18 18 20 16 16 18 19 20 21 25 23 23 22 17 12 11 15 17 19 24 24 21 19 17
3 2 4 6 1 3 3 5 1 2 4 5 7 7 9 7 9 10 11 14 14 17 19 18 17 14 10 13 15 17 17 19 19 18 16 15 16 20 21 17 15 15 17 17 18 18 16 13 12
2 6 3 3 1 3 4 5 4 5 5 5 4 5 7 8 8 9 11 13 16 17 21 19 17 15 13 12 15 14 17 19 15 13 14 13 14 15 16 15 17 18 18 15 11 9 7 8 9
2 1 4 4 4 3 2 5 5 6 6 5 5 3 4 6 6 6 9 12 15 19 21 22 22 21 19 18 18 17 17 17 16 15 15 16 15 13 15 16 15 13 11 9 7 8 9 8 8
4 6 6 4 3 1 3 5 2 5 6 6 3 2 1 2 4 5 8 11 14 16 19 20 21 22 21 22 23 21 21 18 20 16 14 15 16 13 14 13 13 11 9 9 9 8 7 7 8
Wind_Direction
311 332 328 56 50 60 275 267 270 317 321 312 277 282 235 94 157 217 83 153 170 168 168 175 170 166 164 162 158 152 147 140 135 133 130 129 122 120 117 115 114 113 112 104 94 98 91 87 86
235 96 72 89 91 63 268 273 276 297 293 305 298 273 22 31 35 50 105 174 170 168 168 174 174 170 167 167 162 156 151 145 142 140 139 132 128 125 121 119 117 117 114 105 99 104 95 92 91
114 86 87 101 128 193 231 258 327 310 307 289 331 38 46 323 22 131 338 164 168 170 172 176 178 174 171 168 164 160 157 150 148 146 145 138 133 131 127 123 120 119 120 109 104 105 101 95 91
138 27 28 103 224 253 238 319 306 319 333 14 345 94 56 337 302 269 166 162 165 173 178 182 180 177 175 169 165 162 160 155 153 151 148 142 138 135 131 127 124 121 122 112 105 107 104 97 94
58 56 73 104 258 266 297 308 321 313 298 317 337 331 35 17 82 124 146 160 169 179 181 186 186 184 177 172 166 165 164 160 157 156 155 148 144 140 136 130 128 127 123 120 116 111 108 106 101
46 96 72 215 254 277 301 338 296 351 340 325 30 334 351 3 85 123 146 160 174 184 187 192 192 191 182 174 170 170 166 165 165 162 165 158 149 144 140 134 132 131 127 120 116 122 112 108 107
112 87 179 197 265 306 332 320 46 330 337 346 313 353 269 272 130 116 153 163 179 189 190 200 200 197 192 184 176 172 169 169 167 169 169 163 152 146 143 136 134 132 131 118 118 117 113 109 109
108 94 129 250 265 270 281 337 301 45 293 299 354 11 324 249 175 129 159 158 179 181 184 205 214 214 204 196 184 175 169 171 172 173 174 167 157 151 145 139 137 133 137 125 119 118 115 111 112
111 69 162 230 168 275 290 4 303 327 356 314 41 307 307 187 199 199 160 155 151 174 179 187 328 8 253 207 195 179 172 172 173 172 171 164 155 154 153 147 141 139 142 132 123 123 120 113 109
91 114 210 217 216 234 275 310 306 358 323 297 327 295 218 204 224 216 227 225 207 191 178 201 268 278 306 244 202 185 172 173 173 171 171 167 161 161 158 149 144 144 145 134 127 127 128 123 122
153 172 205 251 231 226 241 303 198 315 315 239 267 295 288 229 259 236 233 229 217 207 194 200 227 282 281 299 204 185 175 173 174 178 173 169 166 166 162 155 151 149 148 139 138 138 130 122 125
186 239 219 263 229 261 266 329 327 71 285 305 282 270 354 4 317 269 273 263 241 202 208 218 204 226 237 280 205 188 175 175 175 179 176 171 170 169 166 164 160 156 150 141 139 139 133 127 127
189 260 246 254 279 252 241 270 210 31 341 8 46 49 42 20 12 21 346 275 260 248 210 169 178 212 254 254 212 197 175 177 177 179 178 177 174 171 167 167 164 158 154 146 141 145 140 133 132
252 283 282 288 275 235 209 49 145 34 6 10 27 20 19 23 16 15 3 357 290 239 198 157 170 177 196 269 238 210 182 181 180 181 181 182 179 173 169 167 163 159 159 148 153 160 149 141 137
288 331 326 254 316 252 142 328 100 344 19 23 11 349 349 1 12 6 351 344 334 256 219 193 179 177 234 243 247 281 196 185 184 184 185 184 184 178 173 168 163 164 163 149 145 156 152 146 142
26 49 19 297 340 47 88 263 345 353 13 17 1 348 338 337 352 358 349 341 343 318 207 207 192 176 163 216 276 270 190 195 185 185 190 189 186 182 175 170 167 169 167 163 160 162 156 152 149
5 269 274 311 326 247 149 259 253 360 5 18 2 351 344 342 349 350 340 334 335 329 201 194 185 186 190 172 178 248 232 201 194 190 195 193 189 184 175 172 169 169 164 165 165 166 161 157 154
245 281 263 246 293 341 266 257 268 302 4 342 318 351 346 334 323 330 327 329 337 339 194 191 192 183 199 185 197 202 203 215 208 203 198 200 192 184 178 173 174 173 165 164 168 167 165 162 156
209 212 256 258 257 299 255 243 234 293 278 346 350 5 344 332 319 318 319 328 342 35 188 193 191 186 177 185 196 198 201 213 218 210 201 205 194 186 186 179 178 177 172 167 168 167 166 161 162
200 232 270 293 264 225 245 259 243 282 287 346 6 341 333 327 318 310 319 323 345 23 179 180 185 190 197 189 192 194 199 200 208 207 202 200 199 191 189 190 184 180 176 172 171 170 161 164 168
236 193 225 232 317 315 279 311 312 291 296 357 326 301 330 333 331 322 315 316 331 40 159 173 178 189 192 188 178 166 170 161 164 174 174 185 193 190 194 193 188 187 187 180 174 171 168 165 175
288 210 198 280 3 259 41 280 303 307 306 341 328 343 340 342 336 329 309 310 321 5 153 169 166 173 178 178 170 164 145 127 130 151 155 164 167 176 185 199 194 194 192 187 184 183 183 176 174
224 92 263 233 218 354 320 76 268 336 318 333 338 340 349 346 341 335 303 306 327 124 121 123 136 154 158 164 185 163 143 153 166 166 158 176 162 170 189 217 199 195 190 188 189 187 191 189 176
59 85 44 45 76 338 282 127 285 308 286 317 336 337 352 349 352 357 41 65 75 101 105 115 107 103 131 162 178 181 169 165 152 158 150 159 165 162 158 185 188 188 188 190 186 185 181 165 141
76 56 345 356 4 228 1 52 249 263 256 307 322 326 348 355 2 14 36 49 66 86 98 108 98 85 89 114 140 171 171 158 161 170 164 160 149 151 157 166 182 182 183 183 180 172 155 146 140
122 141 151 209 211 271 313 249 271 210 225 346 310 321 338 21 12 19 29 41 63 75 88 102 105 92 96 101 109 130 145 159 158 162 156 162 167 176 171 158 161 163 153 154 151 144 140 137 132
180 128 162 110 41 37 266 293 295 209 309 338 332 352 344 16 24 27 30 42 61 78 88 95 93 107 102 93 112 122 139 141 150 164 169 174 177 180 172 177 170 162 152 150 153 149 151 150 157
166 157 93 10 107 278 293 289 245 263 259 282 340 358 345 351 30 26 34 41 59 78 95 101 104 103 107 109 114 121 124 129 141 152 166 161 163 177 178 185 186 176 168 173 180 190 216 215 209
140 156 67 115 140 180 295 265 216 204 193 216 266 334 354 354 16 32 38 49 68 88 93 103 107 111 111 119 122 118 116 120 128 134 133 130 130 155 167 169 172 188 196 212 230 245 247 243 245
179 178 146 124 209 191 153 273 8 161 181 191 235 284 81 33 30 34 51 66 65 76 92 96 103 103 107 110 110 111 107 116 118 120 126 122 124 142 147 152 159 182 200 220 225 205 194 185 181
Height
785 785 785 786 813 816 822 808 789 787 780 766 764 764 759 757 762 784 755 759 759 763 770 775 778 780 783 786 789 791 793 795 797 800 802 803 805 807 807 809 810 811 812 812 812 813 813 813 813
785 785 787 795 823 832 827 799 792 784 775 766 759 758 760 770 760 765 764 763 764 767 771 775 778 781 783 786 788 792 794 795 798 800 803 805 807 808 809 810 811 812 813 813 815 815 815 816 815
785 785 793 807 823 830 821 795 794 779 769 768 765 760 762 772 766 765 764 765 768 772 774 777 780 782 784 786 788 791 795 796 799 801 803 805 808 810 810 812 813 814 815 815 816 817 818 819 818
785 788 798 815 819 809 803 798 789 782 770 765 768 769 767 769 767 764 765 766 770 773 778 780 783 784 786 788 790 793 796 798 800 802 804 806 809 811 812 813 815 816 817 818 818 820 821 821 822
786 797 819 821 817 806 797 792 789 787 779 776 773 773 774 770 769 765 764 768 771 776 778 782 784 787 787 789 792 795 798 801 802 805 807 808 810 812 814 814 816 818 819 820 822 823 824 825 825
800 804 826 829 819 803 797 792 790 787 781 777 777 778 778 774 771 768 766 769 772 776 781 783 785 788 790 791 792 796 799 801 804 806 808 809 811 813 815 816 817 819 821 822 824 825 826 828 828
802 813 823 820 816 808 796 790 791 790 786 782 777 782 777 774 773 771 768 768 772 776 781 786 788 789 791 793 794 796 799 803 804 808 808 810 812 814 816 817 819 819 823 824 824 827 829 830 832
798 808 814 815 816 810 793 790 784 787 786 776 776 786 781 774 774 773 772 771 773 776 780 788 791 794 794 796 796 797 799 802 805 808 810 811 813 816 817 818 820 821 825 826 826 828 832 834 834
792 819 825 812 807 804 791 793 785 782 785 781 778 778 777 775 774 774 774 773 775 777 778 784 791 791 799 798 797 797 799 803 806 809 811 814 816 817 819 819 822 823 826 828 829 830 834 836 838
802 821 814 801 795 799 791 791 788 788 789 784 780 776 775 776 775 773 773 773 775 777 778 780 790 789 792 801 797 796 797 801 805 808 810 814 817 819 820 821 823 826 829 830 830 833 835 837 838
800 810 799 794 791 790 790 790 785 788 791 785 784 778 775 774 774 773 771 770 770 774 777 774 784 785 790 787 793 793 794 799 803 807 810 813 817 820 822 823 824 827 830 831 832 834 837 839 840
799 794 792 788 783 786 789 785 789 789 789 781 779 777 776 776 776 775 773 771 769 771 775 776 782 778 779 780 787 788 791 796 801 806 809 812 816 819 822 824 825 827 830 832 833 836 839 841 843
796 790 786 783 784 785 784 787 789 789 787 784 779 778 781 781 778 775 772 769 769 769 771 778 778 775 776 781 782 785 787 793 798 804 808 812 815 818 822 824 826 829 831 833 835 837 840 843 846
789 789 787 784 782 781 783 784 785 787 786 785 782 783 782 781 778 776 773 769 767 767 770 771 778 777 772 781 782 787 786 791 797 802 806 811 815 818 821 824 826 830 832 833 836 838 842 844 848
788 794 791 784 781 781 779 789 792 791 788 788 786 784 782 780 778 775 772 769 764 760 765 765 768 768 770 781 783 791 791 791 795 801 805 809 813 817 820 824 827 831 833 835 836 840 843 847 850
797 801 811 789 783 782 783 804 790 790 790 791 789 787 782 777 776 773 770 767 760 757 759 764 766 769 772 779 776 785 786 792 795 800 806 809 812 816 819 823 828 831 833 835 837 840 844 847 851
812 815 810 802 783 785 788 796 789 789 790 789 789 787 782 775 771 770 768 764 761 756 757 762 766 769 774 775 777 777 781 792 798 799 804 808 811 815 819 822 827 830 833 836 838 841 845 848 853
816 815 810 810 791 787 792 795 790 789 790 790 789 788 786 781 776 771 766 763 757 750 753 759 760 769 774 773 778 783 783 792 796 798 801 805 809 813 818 822 825 829 832 835 838 841 845 848 852
802 807 808 800 789 790 792 793 792 789 787 788 788 786 784 782 776 770 765 759 756 750 749 751 758 763 770 773 777 782 783 787 794 798 801 804 808 812 816 821 824 827 831 835 838 842 845 849 852
800 804 807 798 791 792 794 793 790 789 786 786 788 784 782 780 774 767 762 758 754 750 749 751 754 758 763 766 770 776 781 786 791 793 799 804 808 812 817 820 823 826 830 834 838 840 844 847 851
799 805 803 804 793 789 793 798 794 787 786 785 787 783 778 776 773 767 760 755 754 751 750 751 753 755 759 762 766 773 778 783 789 794 797 804 807 809 814 820 823 826 829 832 837 840 842 846 851
803 793 793 796 803 812 795 818 799 794 791 790 787 781 776 775 772 767 760 755 753 752 753 754 754 756 760 761 767 771 774 782 784 796 797 801 806 809 814 820 823 827 829 831 835 839 841 844 848
798 789 796 796 803 806 802 818 803 797 793 791 787 780 778 776 771 765 757 757 755 756 757 758 759 762 763 767 773 773 776 781 782 792 795 800 803 811 816 821 823 827 829 832 834 838 840 842 846
788 793 804 809 813 821 803 811 809 803 800 794 784 782 781 777 772 765 759 759 759 759 761 764 766 768 770 772 775 777 777 782 785 792 797 802 809 807 814 820 823 826 828 831 833 836 839 841 845
795 810 845 827 840 828 807 817 804 795 796 794 789 784 783 780 776 771 764 762 765 766 767 771 771 773 775 775 779 779 783 785 786 793 792 798 802 807 812 817 822 825 827 829 832 835 839 840 842
796 808 847 848 850 842 812 820 799 794 795 791 788 786 783 783 781 778 775 771 770 771 772 774 776 777 780 780 781 783 785 790 790 794 795 801 802 809 812 819 823 827 827 831 834 837 840 839 843
798 809 807 831 837 843 823 802 792 798 794 794 790 787 785 785 783 783 781 780 779 776 777 779 780 783 784 784 785 787 790 789 793 800 802 803 806 811 814 819 823 828 829 835 839 839 843 840 841
790 798 813 830 835 827 823 811 807 796 796 796 792 788 788 785 784 784 782 782 782 784 783 782 783 786 785 786 789 789 791 790 795 800 803 805 807 812 815 819 823 827 831 836 839 841 843 841 840
799 801 809 815 823 824 826 813 796 790 794 795 794 792 790 789 788 788 787 785 784 783 783 786 788 787 789 790 792 792 793 794 799 805 809 808 808 815 817 820 822 829 832 836 838 841 844 842 843
786 792 801 820 815 825 827 811 785 791 793 792 794 794 793 792 792 791 790 789 787 787 786 786 787 788 790 793 794 799 798 803 804 811 815 811 811 818 819 821 822 829 831 833 837 839 841 841 843